Wind_Speed
16 16 16 17 15 15 16 19 22 22 22 24 24 23 24 26 29 31 31 31 34 37 37 38 38 37 36 36 36 34 33 34 35 35 33 34 37 36 35 35 35 34 34 35 34 32 31 31 32
17 19 20 20 18 18 19 22 23 22 22 26 28 26 25 26 31 35 34 35 32 33 38 41 40 37 35 35 35 36 33 32 31 32 33 33 33 36 36 36 35 36 36 34 34 34 33 31 33
20 20 20 20 22 23 22 24 25 27 28 28 31 29 27 26 27 28 30 32 30 35 40 43 40 37 38 38 38 35 31 29 28 30 30 32 32 34 36 35 35 34 35 34 34 34 35 34 33
21 23 23 23 25 25 26 28 28 31 31 33 37 35 29 29 27 25 29 33 30 34 39 42 38 37 37 35 32 30 31 32 32 31 30 30 29 28 30 32 33 33 33 34 34 36 38 37 36
26 25 27 25 27 27 28 30 30 32 33 36 39 35 32 29 27 27 26 26 30 33 37 39 35 37 36 33 33 36 34 34 35 36 35 34 35 35 34 31 31 31 33 35 36 36 37 39 39
27 29 30 25 26 27 30 31 32 35 39 40 39 34 31 26 27 27 28 31 31 31 35 38 34 34 36 36 36 36 38 38 37 39 40 40 39 37 35 33 34 35 33 35 36 37 37 38 39
32 32 29 26 23 25 28 33 34 40 39 41 39 33 32 33 32 32 29 27 27 30 35 35 35 33 35 35 36 38 38 39 40 41 40 40 38 37 36 35 36 36 35 36 35 33 31 33 35
41 41 33 28 24 25 32 35 40 41 44 42 40 36 36 34 34 36 35 33 28 31 35 36 34 36 36 38 38 39 40 41 41 38 38 39 37 35 33 33 33 33 32 31 32 32 31 34 35
43 48 42 34 31 28 34 41 39 41 43 43 39 39 42 35 37 36 41 35 30 30 34 34 34 36 39 38 40 40 40 41 38 38 36 34 33 32 32 32 29 28 28 29 32 34 33 32 31
46 50 44 35 34 33 38 43 43 45 46 43 40 41 44 40 40 37 38 33 27 28 30 31 35 38 41 40 39 39 38 38 36 34 32 31 32 31 30 29 28 29 32 29 30 33 32 33 34
54 54 39 38 38 44 42 43 49 48 50 43 42 44 45 46 46 38 31 34 27 25 26 33 36 39 44 43 41 38 35 34 33 31 30 30 32 30 29 29 28 29 28 32 35 35 35 36 35
58 56 47 38 38 46 46 49 46 51 48 42 44 48 48 49 47 39 28 32 31 22 26 33 35 39 44 43 37 34 32 34 34 30 29 31 31 30 29 28 28 30 33 34 32 31 30 29 31
56 58 52 45 45 45 46 48 48 47 43 44 48 51 52 53 51 45 32 34 33 24 28 35 36 34 37 38 33 34 34 34 33 30 30 31 30 30 29 30 29 31 33 32 31 32 31 30 31
51 55 56 56 51 42 42 45 53 40 45 49 55 58 58 56 53 50 35 32 30 28 27 30 31 31 32 34 35 34 35 33 32 31 31 30 29 31 32 30 30 32 32 33 33 32 32 33 33
56 57 59 59 49 45 44 49 48 45 50 57 61 56 57 52 50 49 33 31 29 27 17 17 23 27 31 34 35 34 32 34 32 31 32 28 28 29 29 30 31 32 30 31 33 32 34 33 30
62 62 63 56 48 45 49 55 43 41 53 59 58 55 50 45 43 35 29 31 31 25 18 23 28 33 33 35 33 32 33 32 32 31 33 29 28 29 32 35 34 33 32 28 29 29 26 24 25
68 67 60 52 49 51 50 51 43 41 50 57 49 46 41 31 24 25 26 31 30 24 22 24 28 35 34 33 33 32 32 32 31 32 32 30 29 31 34 37 32 31 31 28 22 21 22 23 25
56 53 55 53 48 53 50 46 44 42 47 49 47 31 23 16 20 23 23 21 23 22 23 25 27 34 34 33 31 31 31 31 30 32 33 31 30 30 35 34 29 29 20 18 20 22 22 22 21
63 65 59 56 53 56 46 47 45 38 40 39 29 18 20 20 19 17 18 20 22 22 25 24 31 33 31 31 30 30 31 30 31 33 32 30 29 31 34 27 26 19 17 17 17 15 12 12 14
61 62 61 60 58 56 49 50 36 35 31 30 21 20 21 17 15 20 20 17 18 23 26 26 27 26 29 28 28 30 30 29 32 30 26 28 28 33 27 26 19 16 15 12 9 5 7 8 9
52 56 55 56 59 50 47 44 40 31 28 25 20 18 20 18 20 20 16 15 19 24 22 20 21 22 25 26 27 29 29 29 31 23 25 26 27 29 26 23 15 15 10 7 5 6 9 8 10
47 44 44 48 55 44 38 49 35 26 26 25 20 13 15 18 23 15 14 15 22 24 17 18 19 22 26 26 29 28 28 29 25 23 25 21 25 27 21 17 11 10 6 4 7 9 11 12 16
37 38 38 44 45 43 42 50 14 22 24 23 24 16 16 17 15 11 13 13 21 16 16 17 20 23 24 27 29 28 28 25 22 24 22 23 22 23 15 10 10 7 4 11 12 14 16 18 19
34 34 35 42 44 50 45 39 19 14 17 24 24 19 19 19 16 12 14 17 19 14 16 17 19 20 23 28 26 27 24 19 22 22 20 18 20 15 9 6 4 0 12 15 16 16 16 16 20
42 36 37 36 41 49 36 34 10 4 18 23 21 23 17 22 18 12 14 16 13 14 17 17 18 19 24 24 24 22 20 22 21 19 18 17 16 8 2 4 3 10 15 17 16 15 16 17 19
37 36 42 41 47 46 27 35 16 14 13 13 25 24 20 20 16 12 14 13 12 15 16 14 16 20 21 22 21 17 20 19 19 17 13 17 10 3 3 6 8 12 15 15 14 13 15 17 17
36 43 36 37 39 33 31 25 17 16 13 24 15 18 22 18 15 14 11 8 12 13 11 10 13 17 18 20 16 16 16 15 19 13 11 12 7 3 7 8 11 12 11 16 17 12 12 17 17
44 31 36 41 44 39 29 27 18 14 18 24 12 20 22 16 15 12 7 6 8 11 8 8 13 13 17 18 14 16 16 12 15 12 12 10 7 8 9 9 10 10 8 15 18 16 15 20 13
50 48 49 44 41 38 32 28 15 15 21 20 16 19 19 15 15 8 6 4 7 10 5 8 11 12 16 16 13 16 15 13 13 13 17 11 9 9 10 11 11 12 11 12 17 17 16 15 15
49 45 39 39 38 36 35 26 17 18 23 24 19 21 17 18 11 5 4 4 6 8 5 8 10 12 15 15 11 14 15 12 13 12 14 12 9 9 8 11 12 13 15 14 14 15 17 18 17
Wind_Direction
252 260 265 274 283 289 295 303 306 310 324 334 333 332 324 321 313 305 304 305 305 301 300 300 301 302 303 301 299 300 299 296 292 288 287 285 281 278 274 271 268 265 262 259 258 256 247 246 251
254 261 267 273 276 286 292 299 302 309 321 329 325 321 323 321 309 303 298 302 300 293 297 300 302 307 308 307 305 303 301 299 297 293 287 287 283 280 275 271 268 266 267 263 258 259 259 252 251
251 259 265 271 275 279 289 293 297 303 311 319 319 314 313 313 302 301 297 290 290 296 299 299 304 306 309 312 310 308 303 298 293 289 289 292 286 283 282 278 275 272 270 269 264 261 261 260 254
256 256 259 265 267 274 283 287 291 295 301 310 314 308 300 306 301 296 292 288 291 300 298 299 305 306 308 314 310 311 306 303 303 302 297 285 282 285 279 276 275 275 273 270 267 267 265 262 259
251 254 257 259 263 268 278 284 288 288 294 301 307 306 311 311 307 303 298 289 298 298 299 300 307 306 308 308 303 303 303 300 302 303 301 299 301 300 297 291 285 281 276 270 268 269 267 265 261
250 250 256 256 264 272 280 281 281 284 287 300 301 304 311 314 321 306 296 296 298 297 299 299 305 300 299 299 298 298 300 299 303 306 304 304 306 305 299 293 288 282 277 273 271 268 266 261 260
252 251 252 253 258 264 274 276 278 282 289 297 303 305 305 298 315 324 310 308 307 305 302 302 302 297 296 299 300 299 303 308 309 307 306 304 300 296 292 287 280 274 273 272 269 264 262 258 256
248 249 250 252 253 262 270 272 280 286 292 295 303 304 299 310 314 320 319 310 307 304 304 303 303 298 300 299 301 304 308 310 309 305 299 297 295 294 290 283 278 275 273 268 263 265 268 261 254
251 249 247 253 258 269 257 266 274 283 290 295 302 303 293 302 305 310 314 305 297 300 301 305 300 298 299 302 305 306 308 309 307 302 298 297 298 296 293 291 285 282 277 268 268 267 270 262 253
250 253 249 256 259 257 261 264 269 277 283 298 300 298 293 296 295 303 307 295 290 296 303 300 298 297 300 303 306 307 308 307 307 303 301 302 301 295 293 290 282 282 283 276 276 272 267 261 259
249 255 251 250 262 258 259 262 267 274 274 290 294 292 286 289 290 300 297 284 282 291 298 295 295 295 300 306 311 309 305 308 308 308 308 305 302 298 294 289 286 283 283 280 277 271 267 267 263
255 258 248 251 260 257 257 259 268 271 277 286 284 286 286 282 287 292 287 273 272 282 292 289 293 298 298 307 309 304 306 310 310 311 310 307 305 301 299 297 288 285 290 285 283 276 270 264 261
251 248 249 251 254 265 263 266 273 270 284 284 284 284 284 280 282 287 279 268 272 272 283 286 294 294 302 308 308 310 312 312 311 314 311 311 309 307 306 301 294 289 290 287 284 277 271 268 267
253 251 253 254 262 264 272 275 270 286 290 281 277 278 276 274 277 280 274 266 270 274 278 285 292 305 308 308 313 312 314 314 314 315 315 315 311 313 313 309 301 293 290 284 280 277 272 271 268
253 252 253 256 263 266 273 272 277 285 287 280 275 273 271 271 275 277 255 259 271 276 277 296 302 303 311 308 310 310 313 315 317 318 317 314 314 316 314 316 313 302 293 285 280 277 274 270 255
254 255 256 259 264 268 269 273 282 288 285 284 282 284 280 273 268 261 249 258 268 268 288 295 306 297 310 309 307 310 313 315 318 319 317 315 315 317 317 315 309 304 295 288 285 278 268 258 252
252 253 257 262 259 265 272 282 288 288 284 281 287 283 283 276 255 247 252 255 265 271 287 294 297 303 310 308 307 310 315 316 318 319 320 316 315 319 317 313 307 300 295 291 282 271 265 259 255
255 258 258 260 267 267 274 280 284 279 276 286 287 282 276 246 239 250 263 257 254 279 289 294 296 298 307 306 306 312 315 316 319 319 319 316 316 315 319 316 306 302 292 286 279 272 267 263 253
253 256 258 261 263 264 274 277 277 271 274 279 278 270 248 249 249 269 241 243 263 287 297 294 288 299 306 302 309 313 314 321 320 318 318 316 316 317 317 317 312 298 292 291 285 277 254 229 235
252 256 257 260 261 268 269 267 261 260 264 264 268 252 248 257 262 257 254 267 293 301 290 288 291 300 298 303 312 313 320 323 322 320 318 320 317 318 315 314 306 297 299 295 278 235 216 200 192
253 258 259 261 260 265 264 251 250 250 252 253 246 248 249 254 254 255 269 282 319 310 292 292 295 295 302 311 313 317 323 321 324 320 316 321 320 319 315 307 297 292 304 276 206 195 159 171 181
249 256 254 253 255 256 250 249 241 239 241 241 235 245 252 258 251 263 271 287 308 308 293 295 292 300 310 314 317 319 321 318 318 314 318 322 318 318 313 304 297 305 291 204 167 150 152 155 151
261 256 245 246 251 254 233 246 197 228 232 230 230 250 249 247 237 257 287 292 315 295 300 305 301 303 312 316 321 323 320 317 313 314 321 317 319 323 315 309 315 317 257 159 150 145 157 153 152
247 241 236 239 243 241 231 246 182 229 239 229 230 252 243 236 241 264 285 292 305 291 299 306 313 314 316 320 327 324 325 320 314 321 322 324 324 326 326 331 325 18 141 138 144 151 163 158 152
230 219 226 229 224 232 230 234 142 190 236 239 239 248 237 236 247 270 286 290 297 288 302 306 314 317 319 328 327 331 325 325 326 325 324 324 331 341 20 17 107 139 137 143 149 154 159 155 162
236 229 217 214 219 233 232 235 180 231 244 240 235 244 228 229 254 266 283 297 292 302 311 305 314 321 326 329 335 331 335 345 343 335 335 340 344 30 86 75 134 137 138 145 148 151 154 152 156
217 213 210 219 229 239 227 233 203 227 240 252 248 240 226 237 250 266 290 304 312 313 309 316 325 327 338 346 346 344 350 6 355 347 353 359 19 75 112 103 129 149 136 148 146 145 149 165 157
212 219 218 221 229 234 224 229 224 228 236 249 241 211 226 234 248 264 281 319 323 327 321 331 333 343 350 351 356 355 354 347 4 24 18 20 56 118 118 113 127 142 160 158 153 152 142 163 151
217 207 213 219 228 236 236 234 229 234 234 238 221 234 229 232 247 267 270 283 319 338 335 338 343 346 346 351 359 5 3 15 11 25 31 40 72 117 121 116 126 137 148 162 162 157 146 146 151
216 220 228 234 234 240 248 247 236 238 226 235 226 227 228 239 245 270 247 255 319 350 350 342 352 351 347 354 359 10 8 19 24 38 34 49 79 96 116 119 128 139 154 159 160 155 142 149 138
Height
5897 5897 5897 5898 5902 5899 5899 5899 5898 5897 5897 5897 5896 5896 5895 5892 5890 5889 5884 5882 5880 5875 5872 5869 5867 5864 5862 5860 5857 5855 5852 5850 5848 5846 5844 5842 5841 5839 5839 5839 5840 5840 5840 5841 5840 5842 5845 5845 5846
5893 5894 5895 5895 5898 5896 5896 5895 5895 5893 5894 5894 5893 5893 5892 5889 5886 5883 5881 5878 5875 5871 5867 5862 5859 5859 5857 5853 5851 5849 5846 5844 5842 5840 5839 5837 5835 5834 5832 5831 5832 5832 5833 5833 5833 5833 5836 5837 5839
5890 5891 5893 5893 5894 5893 5892 5892 5892 5890 5890 5890 5890 5890 5888 5886 5883 5880 5878 5875 5872 5867 5861 5856 5856 5855 5851 5846 5843 5840 5839 5837 5836 5835 5833 5832 5829 5828 5828 5826 5825 5825 5826 5827 5826 5826 5827 5830 5832
5887 5888 5890 5891 5891 5890 5889 5887 5889 5886 5886 5884 5884 5886 5886 5882 5878 5876 5873 5871 5868 5862 5856 5852 5851 5849 5847 5844 5839 5836 5833 5830 5829 5827 5826 5825 5823 5822 5821 5821 5820 5819 5818 5819 5819 5820 5821 5821 5823
5882 5884 5885 5887 5887 5887 5885 5883 5885 5882 5883 5881 5881 5880 5878 5876 5873 5871 5869 5865 5863 5858 5852 5848 5847 5844 5842 5839 5836 5832 5829 5826 5823 5820 5818 5816 5814 5813 5812 5812 5812 5812 5811 5812 5812 5813 5813 5812 5814
5877 5878 5881 5884 5884 5882 5880 5880 5879 5878 5878 5878 5878 5876 5875 5871 5868 5866 5864 5861 5857 5852 5847 5844 5842 5840 5838 5835 5832 5829 5826 5822 5818 5814 5811 5809 5807 5805 5804 5803 5803 5803 5802 5803 5803 5804 5804 5804 5804
5872 5872 5875 5879 5882 5880 5876 5874 5873 5874 5874 5872 5870 5870 5870 5866 5863 5861 5858 5855 5851 5847 5842 5840 5837 5835 5833 5830 5827 5824 5820 5816 5813 5809 5805 5803 5801 5798 5796 5794 5794 5795 5794 5793 5794 5795 5794 5795 5796
5864 5864 5869 5872 5876 5877 5874 5868 5867 5868 5866 5865 5866 5864 5863 5860 5858 5855 5853 5850 5846 5842 5838 5834 5832 5829 5826 5824 5822 5818 5814 5811 5807 5802 5799 5796 5793 5791 5789 5786 5786 5785 5784 5784 5785 5785 5785 5785 5787
5857 5856 5862 5867 5870 5871 5867 5865 5864 5861 5859 5859 5862 5859 5854 5854 5853 5851 5849 5845 5842 5838 5834 5830 5827 5825 5821 5819 5816 5812 5808 5804 5800 5796 5792 5788 5785 5783 5780 5778 5776 5775 5775 5775 5776 5775 5775 5775 5777
5848 5848 5856 5863 5862 5862 5860 5859 5858 5858 5855 5856 5857 5853 5848 5848 5848 5847 5844 5840 5837 5834 5830 5825 5822 5820 5816 5814 5812 5808 5802 5798 5793 5789 5785 5781 5778 5775 5772 5770 5768 5767 5767 5766 5766 5766 5766 5767 5768
5840 5838 5852 5853 5854 5851 5852 5853 5849 5850 5850 5856 5851 5848 5845 5842 5841 5842 5839 5835 5832 5830 5826 5821 5818 5814 5810 5808 5806 5801 5796 5792 5787 5782 5778 5775 5771 5768 5766 5764 5762 5760 5759 5758 5757 5756 5757 5757 5758
5829 5832 5840 5846 5842 5840 5843 5842 5844 5840 5845 5849 5844 5839 5839 5837 5835 5834 5833 5830 5826 5823 5821 5817 5814 5809 5806 5803 5800 5795 5790 5785 5780 5775 5772 5768 5764 5760 5758 5756 5754 5752 5750 5748 5747 5746 5746 5747 5749
5816 5822 5830 5831 5832 5832 5835 5834 5835 5837 5841 5838 5833 5831 5829 5827 5827 5826 5826 5823 5821 5817 5814 5812 5809 5804 5801 5797 5793 5788 5783 5778 5773 5769 5766 5761 5757 5753 5750 5747 5745 5743 5741 5739 5738 5737 5738 5738 5739
5811 5811 5816 5818 5821 5827 5827 5828 5819 5833 5832 5827 5821 5819 5819 5818 5819 5818 5820 5818 5815 5811 5808 5807 5804 5800 5796 5791 5786 5781 5777 5772 5767 5764 5760 5755 5751 5746 5742 5739 5736 5734 5733 5730 5729 5729 5729 5729 5730
5799 5798 5802 5805 5816 5817 5821 5812 5816 5823 5818 5809 5806 5808 5806 5808 5810 5810 5811 5811 5809 5806 5802 5800 5798 5795 5790 5785 5780 5775 5771 5766 5761 5757 5753 5749 5745 5740 5737 5733 5729 5726 5724 5722 5720 5720 5719 5719 5721
5788 5789 5788 5800 5808 5809 5809 5799 5811 5815 5805 5797 5796 5795 5796 5798 5799 5802 5803 5804 5803 5801 5797 5794 5791 5789 5784 5779 5775 5769 5765 5760 5756 5752 5747 5743 5739 5735 5731 5726 5722 5719 5716 5714 5712 5711 5710 5711 5713
5772 5774 5784 5794 5797 5801 5798 5795 5802 5805 5796 5789 5789 5787 5787 5789 5792 5797 5796 5797 5797 5795 5792 5788 5786 5783 5778 5773 5769 5764 5759 5755 5751 5746 5741 5737 5733 5729 5724 5719 5714 5711 5708 5706 5704 5704 5704 5704 5706
5770 5774 5776 5781 5793 5791 5790 5788 5791 5795 5789 5785 5781 5782 5784 5786 5790 5789 5791 5792 5792 5790 5787 5782 5780 5777 5772 5768 5763 5759 5754 5750 5745 5740 5735 5731 5728 5722 5718 5713 5708 5705 5702 5700 5699 5697 5697 5697 5698
5761 5761 5768 5774 5780 5778 5783 5780 5784 5786 5783 5779 5778 5780 5781 5784 5786 5787 5787 5786 5786 5784 5780 5776 5773 5770 5767 5762 5758 5753 5749 5744 5739 5734 5730 5727 5721 5716 5712 5707 5703 5700 5697 5695 5693 5691 5691 5692 5694
5751 5754 5757 5764 5770 5770 5774 5769 5774 5778 5777 5774 5776 5778 5780 5782 5783 5782 5782 5782 5780 5777 5773 5771 5768 5764 5762 5757 5753 5748 5743 5738 5733 5730 5726 5721 5716 5711 5707 5703 5699 5697 5694 5691 5689 5689 5690 5691 5692
5740 5742 5753 5757 5760 5762 5760 5757 5764 5771 5770 5769 5773 5777 5778 5779 5778 5778 5778 5777 5775 5771 5768 5765 5763 5760 5756 5752 5748 5743 5738 5733 5729 5725 5721 5716 5710 5706 5702 5698 5695 5692 5690 5689 5688 5689 5690 5692 5694
5730 5739 5740 5746 5747 5751 5752 5743 5758 5764 5764 5765 5770 5773 5773 5774 5775 5775 5774 5772 5770 5766 5764 5761 5758 5755 5751 5747 5743 5738 5733 5729 5725 5721 5717 5711 5706 5702 5697 5693 5692 5689 5688 5688 5689 5690 5692 5694 5695
5727 5726 5730 5734 5738 5738 5745 5739 5756 5756 5758 5762 5766 5769 5770 5770 5770 5771 5769 5767 5765 5761 5760 5756 5754 5750 5747 5743 5738 5733 5729 5725 5721 5717 5712 5707 5702 5698 5694 5691 5690 5688 5687 5688 5690 5692 5694 5696 5697
5715 5715 5718 5725 5730 5724 5737 5743 5751 5754 5754 5756 5761 5764 5764 5766 5767 5766 5765 5763 5760 5758 5756 5753 5749 5746 5743 5738 5734 5729 5725 5721 5717 5712 5708 5704 5700 5696 5693 5691 5689 5688 5687 5690 5692 5694 5696 5698 5700
5701 5705 5709 5715 5718 5719 5735 5739 5746 5748 5749 5752 5756 5757 5759 5761 5764 5762 5761 5759 5755 5754 5751 5748 5746 5743 5739 5735 5730 5727 5723 5718 5713 5708 5704 5701 5698 5695 5694 5691 5691 5690 5690 5693 5694 5697 5699 5701 5703
5699 5702 5702 5708 5711 5714 5731 5727 5742 5744 5746 5749 5751 5753 5756 5758 5759 5758 5757 5754 5752 5750 5747 5745 5743 5739 5736 5731 5728 5724 5720 5715 5710 5706 5703 5700 5697 5696 5694 5693 5693 5693 5694 5697 5699 5700 5702 5704 5706
5691 5685 5702 5706 5708 5715 5722 5728 5736 5740 5743 5744 5748 5751 5753 5755 5755 5755 5752 5750 5748 5746 5743 5742 5740 5737 5733 5730 5726 5723 5718 5713 5710 5705 5702 5700 5697 5696 5695 5695 5696 5697 5698 5699 5701 5703 5704 5706 5709
5678 5693 5696 5697 5699 5704 5715 5720 5731 5737 5739 5740 5746 5747 5749 5751 5753 5751 5749 5746 5746 5743 5741 5740 5738 5735 5732 5729 5725 5722 5716 5713 5710 5706 5703 5699 5697 5696 5696 5697 5698 5699 5702 5703 5704 5705 5707 5709 5711
5669 5673 5680 5688 5695 5700 5709 5716 5728 5732 5733 5737 5742 5743 5746 5748 5750 5747 5745 5744 5744 5741 5739 5738 5736 5734 5731 5728 5724 5721 5716 5713 5710 5707 5704 5701 5698 5698 5699 5699 5700 5702 5705 5707 5707 5708 5710 5712 5713
5665 5674 5683 5687 5693 5698 5704 5714 5722 5725 5729 5732 5738 5741 5743 5746 5746 5744 5742 5741 5741 5739 5738 5736 5735 5732 5730 5727 5724 5721 5717 5714 5711 5708 5706 5703 5701 5701 5702 5702 5702 5704 5706 5709 5711 5712 5714 5716 5717